JZR175 OKKK-OSAP

Flight info

Callsign JZR175
Flight time N/A
Altitude 38000
Route TASMI5F G795 TASMI L602 GADSI M703 PASIP DCT TAN
Aircraft A20N/M-SDE2E3FGHIRWXY/LB1

Departure

Time N/A
Airport Kuwait International Airport (OKKK)

Arrival

Time 2026-05-08 20:42
Airport Aleppo International Airport (OSAP)
Time Latitude Longitude Altitude Speed Heading
2026-05-08 19:22 31.53209 44.29263 38034 ft 421 kts 282°
2026-05-08 19:22 31.54233 44.26050 38036 ft 421 kts 282°
2026-05-08 19:23 31.56278 44.19613 38037 ft 422 kts 283°
2026-05-08 19:23 31.58327 44.13166 38043 ft 422 kts 283°
2026-05-08 19:24 31.60379 44.06701 38050 ft 423 kts 283°
2026-05-08 19:24 31.62426 44.00232 38043 ft 424 kts 283°
2026-05-08 19:25 31.64474 43.93749 38051 ft 424 kts 283°
2026-05-08 19:25 31.66522 43.87258 38055 ft 424 kts 283°
2026-05-08 19:26 31.68564 43.80764 38038 ft 425 kts 284°
2026-05-08 19:26 31.70597 43.74288 38047 ft 426 kts 284°
2026-05-08 19:27 31.72643 43.67763 38052 ft 426 kts 284°
2026-05-08 19:27 31.74688 43.61224 38039 ft 427 kts 284°
2026-05-08 19:28 31.76732 43.54673 38056 ft 427 kts 284°
2026-05-08 19:28 31.78779 43.48101 38057 ft 428 kts 284°
2026-05-08 19:29 31.80821 43.41529 38056 ft 429 kts 285°
2026-05-08 19:29 31.82865 43.34933 38056 ft 430 kts 285°
2026-05-08 19:30 31.84911 43.28325 38066 ft 430 kts 285°
2026-05-08 19:30 31.86952 43.21708 38084 ft 430 kts 285°
2026-05-08 19:31 31.88990 43.15084 38076 ft 431 kts 285°
2026-05-08 19:31 31.91030 43.08446 38079 ft 431 kts 285°
2026-05-08 19:32 31.93066 43.01803 38086 ft 430 kts 285°
2026-05-08 19:32 31.95084 42.95205 38067 ft 428 kts 286°
2026-05-08 19:33 31.97099 42.88602 38069 ft 429 kts 286°
2026-05-08 19:33 31.99111 42.81996 38068 ft 428 kts 285°
2026-05-08 19:34 32.01119 42.75389 38067 ft 428 kts 285°
2026-05-08 19:34 32.03121 42.68789 38066 ft 428 kts 285°
2026-05-08 19:35 32.05118 42.62190 38063 ft 427 kts 285°
2026-05-08 19:35 32.07111 42.55590 38072 ft 427 kts 286°
2026-05-08 19:36 32.09101 42.48987 38069 ft 427 kts 286°
2026-05-08 19:36 32.11084 42.42395 38068 ft 426 kts 286°
2026-05-08 19:37 32.13058 42.35807 38078 ft 426 kts 286°
2026-05-08 19:37 32.15033 42.29213 38075 ft 426 kts 286°
2026-05-08 19:38 32.17002 42.22626 38073 ft 425 kts 286°
2026-05-08 19:38 32.18964 42.16045 38076 ft 425 kts 287°
2026-05-08 19:39 32.20909 42.09509 38077 ft 424 kts 287°
2026-05-08 19:39 32.22859 42.02939 38074 ft 424 kts 286°
2026-05-08 19:40 32.24806 41.96360 38073 ft 424 kts 287°
2026-05-08 19:40 32.26749 41.89787 38075 ft 424 kts 287°
2026-05-08 19:41 32.28690 41.83207 38079 ft 424 kts 287°
2026-05-08 19:41 32.30626 41.76629 38084 ft 424 kts 287°
2026-05-08 19:42 32.32232 41.71158 38087 ft 424 kts 287°
2026-05-08 19:42 32.34163 41.64571 38084 ft 424 kts 287°
2026-05-08 19:43 32.36089 41.57986 38071 ft 424 kts 287°
2026-05-08 19:43 32.38011 41.51393 38090 ft 424 kts 288°
2026-05-08 19:44 32.39931 41.44800 38068 ft 424 kts 288°
2026-05-08 19:44 32.41842 41.38226 38077 ft 422 kts 288°
2026-05-08 19:45 32.43743 41.31664 38083 ft 420 kts 289°
2026-05-08 19:45 32.45649 41.25149 38080 ft 419 kts 288°
2026-05-08 19:46 32.47544 41.18605 38079 ft 420 kts 288°
2026-05-08 19:46 32.50364 41.08791 38082 ft 419 kts 288°
2026-05-08 19:47 32.52237 41.02255 38083 ft 419 kts 288°
2026-05-08 19:47 32.54104 40.95730 38080 ft 418 kts 288°
2026-05-08 19:48 32.55967 40.89200 38076 ft 417 kts 289°
2026-05-08 19:48 32.57810 40.82722 38075 ft 415 kts 289°
2026-05-08 19:49 32.59654 40.76237 38072 ft 415 kts 289°
2026-05-08 19:49 32.61496 40.69742 38081 ft 415 kts 289°
2026-05-08 19:50 32.63332 40.63255 38082 ft 415 kts 289°
2026-05-08 19:50 32.65166 40.56762 38078 ft 415 kts 289°
2026-05-08 19:51 32.66986 40.50313 38078 ft 415 kts 289°
2026-05-08 19:51 32.68819 40.43782 38084 ft 414 kts 289°
2026-05-08 19:52 32.70629 40.37334 38088 ft 414 kts 289°
2026-05-08 19:52 32.72444 40.30855 38086 ft 414 kts 289°
2026-05-08 19:53 32.74255 40.24373 38086 ft 413 kts 289°
2026-05-08 19:53 32.76042 40.17951 38086 ft 408 kts 289°
2026-05-08 19:54 32.77815 40.11579 38084 ft 410 kts 289°
2026-05-08 19:54 32.79600 40.05152 38071 ft 409 kts 289°
2026-05-08 19:55 32.81371 39.98746 38069 ft 405 kts 290°
2026-05-08 19:55 32.83129 39.92384 38085 ft 406 kts 290°
2026-05-08 19:56 32.84889 39.86004 38090 ft 406 kts 290°
2026-05-08 19:56 32.86645 39.79619 38088 ft 406 kts 290°
2026-05-08 19:57 32.88389 39.73260 38081 ft 404 kts 290°
2026-05-08 19:57 32.90134 39.66893 38087 ft 404 kts 290°
2026-05-08 19:58 32.91872 39.60533 38087 ft 404 kts 290°
2026-05-08 19:58 32.93607 39.54166 38090 ft 404 kts 291°
2026-05-08 19:59 32.95324 39.47855 38091 ft 402 kts 291°
2026-05-08 19:59 32.97048 39.41507 38092 ft 403 kts 291°
2026-05-08 20:00 32.98766 39.35164 38084 ft 403 kts 291°
2026-05-08 20:00 33.00480 39.28820 38084 ft 402 kts 291°
2026-05-08 20:01 33.02192 39.22471 38084 ft 402 kts 291°
2026-05-08 20:01 33.03921 39.16133 38081 ft 402 kts 292°
2026-05-08 20:02 33.05648 39.09802 38071 ft 402 kts 292°
2026-05-08 20:02 33.07348 39.03458 38068 ft 402 kts 292°
2026-05-08 20:03 33.09324 38.97265 38058 ft 397 kts 302°
2026-05-08 20:03 33.12635 38.92076 38061 ft 393 kts 317°
2026-05-08 20:04 33.17050 38.88254 38071 ft 393 kts 328°
2026-05-08 20:04 33.21694 38.84881 38083 ft 393 kts 328°
2026-05-08 20:05 33.26392 38.81446 38089 ft 394 kts 328°
2026-05-08 20:05 33.31030 38.78053 38089 ft 394 kts 328°
2026-05-08 20:06 33.35703 38.74632 38091 ft 394 kts 328°
2026-05-08 20:06 33.40380 38.71205 38091 ft 394 kts 328°
2026-05-08 20:07 33.45047 38.67780 38087 ft 394 kts 328°
2026-05-08 20:07 33.49831 38.64615 38075 ft 391 kts 334°
2026-05-08 20:08 33.54814 38.62044 38085 ft 390 kts 335°
2026-05-08 20:08 33.59802 38.59447 38085 ft 391 kts 335°
2026-05-08 20:09 33.64788 38.56854 38085 ft 391 kts 335°
2026-05-08 20:09 33.69775 38.54262 38085 ft 391 kts 335°
2026-05-08 20:10 33.74771 38.51662 38081 ft 391 kts 335°
2026-05-08 20:10 33.79771 38.49057 38082 ft 392 kts 335°
2026-05-08 20:11 33.84771 38.46449 38080 ft 392 kts 335°
2026-05-08 20:11 33.89766 38.43841 38081 ft 392 kts 335°
2026-05-08 20:12 33.94768 38.41225 38085 ft 392 kts 335°
2026-05-08 20:12 33.99774 38.38604 38089 ft 392 kts 335°
2026-05-08 20:13 34.04750 38.35996 38089 ft 393 kts 335°
2026-05-08 20:13 34.09761 38.33365 38091 ft 393 kts 335°
2026-05-08 20:14 34.14766 38.30735 38090 ft 393 kts 335°
2026-05-08 20:14 34.19776 38.28099 38093 ft 393 kts 335°
2026-05-08 20:15 34.24785 38.25459 38097 ft 393 kts 334°
2026-05-08 20:15 34.29795 38.22816 38098 ft 393 kts 334°
2026-05-08 20:16 34.34804 38.20170 38095 ft 393 kts 334°
2026-05-08 20:16 34.39804 38.17527 38101 ft 392 kts 334°
2026-05-08 20:17 34.44798 38.14881 38099 ft 392 kts 334°
2026-05-08 20:17 34.49788 38.12235 38120 ft 392 kts 334°
2026-05-08 20:18 34.54784 38.09582 38106 ft 391 kts 334°
2026-05-08 20:18 34.59766 38.06933 38101 ft 391 kts 334°
2026-05-08 20:19 34.64748 38.04281 38112 ft 390 kts 334°
2026-05-08 20:19 34.69720 38.01630 38105 ft 390 kts 334°
2026-05-08 20:20 34.74682 37.98982 38118 ft 389 kts 334°
2026-05-08 20:20 34.79647 37.96328 38114 ft 390 kts 334°
2026-05-08 20:21 34.84575 37.93693 38118 ft 389 kts 334°
2026-05-08 20:21 34.89532 37.91035 38119 ft 389 kts 334°
2026-05-08 20:22 34.94483 37.88377 38123 ft 389 kts 334°
2026-05-08 20:22 34.98640 37.86144 38119 ft 390 kts 334°
2026-05-08 20:23 35.04395 37.83028 37849 ft 388 kts 332°
2026-05-08 20:23 35.06850 37.81651 37243 ft 389 kts 332°
2026-05-08 20:23 35.09322 37.80278 36406 ft 392 kts 332°
2026-05-08 20:24 35.11825 37.78915 35527 ft 396 kts 333°
2026-05-08 20:24 35.14349 37.77555 34823 ft 395 kts 333°
2026-05-08 20:24 35.16847 37.76214 34309 ft 390 kts 333°
2026-05-08 20:24 35.19314 37.74890 33736 ft 385 kts 333°
2026-05-08 20:25 35.21770 37.73566 32747 ft 389 kts 333°
2026-05-08 20:25 35.24272 37.72213 31539 ft 399 kts 333°
2026-05-08 20:25 35.26854 37.70815 30246 ft 412 kts 334°
2026-05-08 20:25 35.29505 37.69381 29050 ft 419 kts 334°
2026-05-08 20:26 35.32158 37.67950 28392 ft 413 kts 334°
2026-05-08 20:26 35.34783 37.66533 27589 ft 412 kts 334°
2026-05-08 20:26 35.37406 37.65116 26735 ft 412 kts 334°
2026-05-08 20:26 35.40025 37.63698 25954 ft 412 kts 334°
2026-05-08 20:27 35.42647 37.62276 25161 ft 412 kts 334°
2026-05-08 20:27 35.45270 37.60852 24504 ft 410 kts 334°
2026-05-08 20:27 35.47848 37.59455 24231 ft 398 kts 334°
2026-05-08 20:27 35.50344 37.58102 24133 ft 389 kts 334°
2026-05-08 20:28 35.52843 37.56743 24107 ft 396 kts 334°
2026-05-08 20:28 35.55364 37.55370 24106 ft 396 kts 334°
2026-05-08 20:28 35.57879 37.54000 24109 ft 395 kts 334°
2026-05-08 20:28 35.60373 37.52640 24067 ft 389 kts 334°
2026-05-08 20:29 35.62807 37.51313 23939 ft 374 kts 334°
2026-05-08 20:29 35.65131 37.50048 23773 ft 356 kts 334°
2026-05-08 20:29 35.67352 37.48837 23314 ft 345 kts 333°
2026-05-08 20:29 35.69527 37.47648 22597 ft 342 kts 333°
2026-05-08 20:30 35.70960 37.46863 22114 ft 340 kts 333°
2026-05-08 20:30 35.73112 37.45684 21422 ft 337 kts 333°
2026-05-08 20:30 35.75963 37.44120 20576 ft 332 kts 333°
2026-05-08 20:30 35.77354 37.43358 20166 ft 330 kts 333°
2026-05-08 20:31 35.79445 37.42212 19520 ft 327 kts 333°
2026-05-08 20:31 35.81519 37.41073 18905 ft 325 kts 333°
2026-05-08 20:31 35.83577 37.39943 18293 ft 323 kts 333°
2026-05-08 20:31 35.85616 37.38822 17630 ft 320 kts 333°
2026-05-08 20:32 35.87639 37.37709 16974 ft 317 kts 333°
2026-05-08 20:32 35.90288 37.36218 16127 ft 314 kts 332°
2026-05-08 20:32 35.91620 37.35453 15705 ft 312 kts 332°
2026-05-08 20:32 35.93584 37.34321 15093 ft 310 kts 332°
2026-05-08 20:33 35.95534 37.33198 14489 ft 308 kts 332°
2026-05-08 20:33 35.97483 37.32117 13905 ft 306 kts 333°
2026-05-08 20:33 35.99430 37.31066 13261 ft 304 kts 333°
2026-05-08 20:33 36.01366 37.30022 12619 ft 303 kts 333°
2026-05-08 20:34 36.03290 37.28984 12012 ft 301 kts 333°
2026-05-08 20:34 36.05195 37.27951 11409 ft 299 kts 333°
2026-05-08 20:34 36.08964 37.25900 10311 ft 292 kts 333°
2026-05-08 20:35 36.10811 37.24893 9826 ft 288 kts 333°
2026-05-08 20:35 36.12656 37.23876 9365 ft 291 kts 333°
2026-05-08 20:35 36.14536 37.22951 8889 ft 294 kts 346°
2026-05-08 20:35 36.16562 37.22933 8461 ft 294 kts 12°
2026-05-08 20:36 36.18375 37.23962 8049 ft 293 kts 37°
2026-05-08 20:36 36.19682 37.25860 7579 ft 289 kts 63°
2026-05-08 20:36 36.20383 37.28171 7046 ft 285 kts 73°
2026-05-08 20:36 36.20889 37.30508 6628 ft 278 kts 75°
2026-05-08 20:37 36.21389 37.32804 6049 ft 275 kts 74°
2026-05-08 20:37 36.21928 37.35049 5655 ft 268 kts 72°
2026-05-08 20:37 36.22474 37.37264 5263 ft 268 kts 79°
2026-05-08 20:37 36.22449 37.39555 4984 ft 269 kts 101°
2026-05-08 20:38 36.21753 37.41695 4639 ft 272 kts 126°
2026-05-08 20:38 36.20343 37.43209 4289 ft 270 kts 153°
2026-05-08 20:38 36.18535 37.43728 3943 ft 269 kts 184°
2026-05-08 20:38 36.16800 37.43006 3604 ft 265 kts 217°
2026-05-08 20:39 36.15696 37.41235 3224 ft 262 kts 252°
2026-05-08 20:39 36.15653 37.39066 3041 ft 250 kts 289°
2026-05-08 20:39 36.16276 37.37116 2995 ft 237 kts 292°
2026-05-08 20:39 36.16749 37.35243 2991 ft 221 kts 284°
2026-05-08 20:40 36.17021 37.33414 2830 ft 214 kts 279°
2026-05-08 20:40 36.17204 37.31586 2526 ft 215 kts 277°
2026-05-08 20:40 36.17373 37.29783 2231 ft 205 kts 278°
2026-05-08 20:40 36.17530 37.28110 1993 ft 187 kts 278°
2026-05-08 20:41 36.17676 37.26582 1721 ft 171 kts 278°
2026-05-08 20:41 36.17806 37.25205 1482 ft 152 kts 278°
2026-05-08 20:41 36.17918 37.23978 1307 ft 137 kts 277°
2026-05-08 20:41 36.18023 37.22887 1271 ft 118 kts 278°
2026-05-08 20:42 36.18098 37.22184 1267 ft 52 kts 275°
2026-05-08 20:42 36.18126 37.21822 1270 ft 32 kts 283°
2026-05-08 20:42 36.18224 37.21577 1270 ft 31 kts 307°
2026-05-08 20:42 36.18299 37.21558 1270 ft 10 kts 50°
2026-05-08 20:43 36.18297 37.21718 1267 ft 28 kts 97°
2026-05-08 20:43 36.18270 37.21966 1267 ft 30 kts 97°
2026-05-08 20:43 36.18244 37.22233 1267 ft 32 kts 96°
2026-05-08 20:43 36.18219 37.22512 1267 ft 34 kts 96°
2026-05-08 20:44 36.18210 37.22626 1263 ft 11 kts 92°
2026-05-08 20:44 36.18260 37.22702 1264 ft 13 kts 18°
2026-05-08 20:44 36.18306 37.22787 1264 ft 13 kts 54°
2026-05-08 20:44 36.18374 37.22818 1268 ft 0 kts 13°